Regional Weather Roundup
Issued by NWS

Home | Current Version | Previous Version | Graphics & Text | Print | Product List | Glossary On
Versions: 1 2 3 4 5 6 7 8 9 10 11 12 13 14 15 16 17 18 19 20 21 22 23 24 25 26 27 28 29 30 31 32 33 34 35 36 37 38 39 40 41 42 43 44 45 46 47 48 49 50
000
ASUS45 KSLC 291010
RWRUT

UTAH REGIONAL WEATHER ROUNDUP
NATIONAL WEATHER SERVICE SALT LAKE CITY UT
400 AM MDT FRI APR 29 2016

UTZ001>011-023>025-291100-

NORTHERN UTAH

CITY           SKY/WX    TMP DP  RH WIND       PRES   REMARKS
BRIGHAM CITY   CLOUDY    46  27  47 E20G31    29.87S
HILL AFB       MOCLDY    42  29  58 E20G30    29.85S
LOGAN          CLOUDY    45  29  53 SE18G26   29.89R
OGDEN          MOCLDY    44  29  55 E10       29.85R
PROVO AIRPORT  CLOUDY    43  37  81 N3        29.86R
SALT LAKE CITY MOCLDY    45  34  65 W5        29.85S
VERNAL         CLOUDY    40  31  70 NE10      29.85S WCI  33
WENDOVER       CLEAR     46  30  53 SE7       29.87R
HEBER CITY     MIX PCPN  36  32  87 CALM      29.87R

$$

UTZ012>022-026-027-291100-

SOUTHERN/CENTRAL UTAH

CITY           SKY/WX    TMP DP  RH WIND       PRES   REMARKS
BLANDING       MOCLDY    36  32  84 N5        29.90S WCI  32
BRYCE CANYON   CLOUDY    32  29  88 NW8       29.86S WCI  25
CEDAR CITY     CLOUDY    40  38  93 CALM      29.86R
DELTA          MOCLDY    41  41 100 CALM      29.86R
MILFORD        CLOUDY    42  40  92 SW6       29.85S
MOAB/CYNLANDS  PTCLDY    39  36  89 N5        29.81S
PRICE          PTCLDY    37  32  82 NW3       29.82F
ST GEORGE      CLOUDY    46  43  87 SE5       29.86R

$$

REGIONAL REPORTS     COLORADO/ARIZONA

CITY           SKY/WX    TMP DP  RH WIND       PRES   REMARKS
CRAIG, CO      CLOUDY    38  34  85 E7        29.86F WCI  33
GRAND JUNCTION CLOUDY    41  37  86 N8        29.82R
RIFLE          CLOUDY    41  36  82 CALM      29.82F
MONTROSE       CLOUDY    42  32  67 SE5       29.83F
CORTEZ         CLOUDY    32  30  92 CALM      29.84R
PAGE, AZ       CLOUDY    46  43  89 CALM      29.82S
GRAND CANYON   CLOUDY    38  36  92 CALM      29.87S
KINGMAN        PTCLDY    46  41  82 S6        29.86S
FLAGSTAFF      MOCLDY    35  34  96 SW3       29.88R

$$

REGIONAL REPORTS    NEVADA/IDAHO/WYOMING

CITY           SKY/WX    TMP DP  RH WIND       PRES   REMARKS
LAS VEGAS, NV  PTCLDY    54  47  77 SW6       29.80S
ELY            CLOUDY    34  32  92 W7        29.93S WCI  28
ELKO           CLOUDY    41  36  82 CALM      29.93S
POCATELLO, ID  CLOUDY    42  33  70 SE6       29.87S
BURLEY         CLOUDY    46  36  68 W7        29.86S
EVANSTON, WY   LGT SNOW  30  26  85 E12       29.90S FOG     WCI  20
ROCK SPRINGS   CLOUDY    31  26  82 NE13      29.94S WCI  21

$$



USA.gov is the U.S. government's official web portal to all federal, state and local government web resources and services.